LA5TUA Weather Reports


time (UTC)temp
F
wind
direction
speed
knots
gust
knots
rain 1hr
in
rain 24hr
in
rain mn
in
humidity
%
barometer
mb
20260505205002 46 349 0.9 4.3 0.00 0.00 0.00 51 1011.9
20260505203937 46 342 1.7 4.3 0.00 0.00 0.00 50 1011.5
20260505202913 47 355 0.0 8.7 0.00 0.00 0.00 48 1011.5
20260505201842 47 13 2.6 8.7 0.00 0.00 0.00 49 1011.5
20260505200810 47 338 3.5 5.2 0.00 0.00 0.00 51 1011.5
20260505195742 47 238 0.0 3.5 0.00 0.00 0.00 64 1011.2
20260505194709 47 258 0.0 3.5 0.00 0.00 0.00 65 1011.2
20260505193642 47 271 0.9 2.6 0.00 0.00 0.00 64 1011.2
20260505192609 47 246 2.6 7.0 0.00 0.00 0.00 63 1011.2
20260505191546 47 269 0.9 8.7 0.00 0.00 0.00 62 1010.8
20260505190518 47 193 1.7 7.0 0.00 0.00 0.00 61 1010.8
20260505185445 47 215 5.2 7.0 0.00 0.00 0.00 59 1010.8
20260505183356 48 209 0.9 7.8 0.00 0.00 0.00 58 1010.8
20260505182329 48 220 4.3 9.6 0.00 0.00 0.00 56 1010.5
20260505181301 49 213 7.8 7.8 0.00 0.00 0.00 52 1010.5
20260505180235 49 226 5.2 5.2 0.00 0.00 0.00 51 1010.5
20260505175208 49 215 1.7 7.8 0.00 0.00 0.00 51 1010.2
20260505173126 50 219 3.5 7.8 0.00 0.00 0.00 50 1010.2
20260505172102 50 205 5.2 8.7 0.00 0.00 0.00 50 1010.2
20260505171029 50 246 4.3 8.7 0.00 0.00 0.00 49 1010.2
20260505165951 50 205 3.5 7.8 0.00 0.00 0.00 49 1010.2
20260505164919 49 207 3.5 10.4 0.00 0.00 0.00 52 1010.2
20260505163850 48 197 7.0 8.7 0.00 0.00 0.00 63 1010.2
20260505162831 48 185 5.2 10.4 0.00 0.00 0.00 62 1010.2
20260505161758 48 161 5.2 11.3 0.00 0.00 0.00 64 1010.2
20260505160726 48 152 1.7 10.4 0.00 0.00 0.00 66 1010.5
20260505152528 49 213 9.6 14.8 0.00 0.00 0.00 62 1010.5
20260505151501 48 184 7.8 14.8 0.00 0.00 0.00 65 1010.5
20260505150434 49 130 7.8 15.6 0.00 0.00 0.00 61 1010.5
20260505140153 48 166 10.4 15.6 0.00 0.00 0.00 58 1010.5
20260505124914 48 187 5.2 13.0 0.00 0.00 0.00 48 1010.8
20260505123845 49 188 7.0 15.6 0.00 0.00 0.00 49 1010.5
20260505122816 50 223 3.5 16.5 0.00 0.00 0.00 48 1010.5
20260505120735 54 164 4.3 8.7 0.00 0.00 0.00 30 1010.2
20260505113641 54 257 4.3 5.2 0.00 0.00 0.00 35 1010.5
20260505112619 53 194 0.9 6.1 0.00 0.00 0.00 32 1010.5
20260505111552 52 282 1.7 7.8 0.00 0.00 0.00 36 1010.5
20260505110531 52 273 0.9 8.7 0.00 0.00 0.00 36 1010.5
20260505101334 49 273 7.0 7.0 0.00 0.00 0.00 40 1010.8
20260505100238 48 63 0.9 4.3 0.00 0.00 0.00 39 1010.8
20260505095229 49 195 2.6 4.3 0.00 0.00 0.00 38 1010.5
20260505094203 49 205 2.6 5.2 0.00 0.00 0.00 38 1010.8
20260505093137 49 243 1.7 4.3 0.00 0.00 0.00 41 1010.8
20260505092115 49 265 0.9 5.2 0.00 0.00 0.00 39 1010.8
20260505091010 47 292 6.1 7.8 0.00 0.00 0.00 42 1010.8
20260505085946 47 325 3.5 7.8 0.00 0.00 0.00 41 1010.8
20260505084919 47 336 1.7 10.4 0.00 0.00 0.00 41 1010.5
20260505083918 47 329 2.6 8.7 0.00 0.00 0.00 42 1010.5
20260505082851 47 311 4.3 8.7 0.00 0.00 0.00 43 1010.5
20260505081819 46 341 7.0 10.4 0.00 0.00 0.00 43 1010.5
20260505080753 46 351 3.5 10.4 0.00 0.00 0.00 45 1010.5
20260505075719 45 336 3.5 8.7 0.00 0.00 0.00 45 1010.5
20260505074651 45 360 4.3 8.7 0.00 0.00 0.00 46 1010.5
20260505073624 45 308 3.5 7.8 0.00 0.00 0.00 46 1010.5
20260505072556 44 292 6.1 9.6 0.00 0.00 0.00 46 1010.2
20260505071531 44 343 1.7 8.7 0.00 0.00 0.00 46 1010.2
20260505070502 45 304 2.6 5.2 0.00 0.00 0.00 49 1010.2
20260505065435 45 291 0.9 4.3 0.00 0.00 0.00 49 1009.8
20260505064409 44 203 0.9 4.3 0.00 0.00 0.00 49 1009.8
20260505063340 44 22 0.0 4.3 0.00 0.00 0.00 51 1009.8
20260505062310 43 335 1.7 6.1 0.00 0.00 0.00 53 1010.2
20260505061241 43 58 1.7 6.1 0.00 0.00 0.00 52 1010.2
20260505060220 42 28 1.7 5.2 0.00 0.00 0.00 53 1009.8
20260505055151 41 51 1.7 3.5 0.00 0.00 0.00 55 1010.2
20260505054124 40 9 0.9 5.2 0.00 0.00 0.00 55 1010.2
20260505053057 40 5 1.7 7.0 0.00 0.00 0.00 56 1010.2
20260505052035 40 26 1.7 4.3 0.00 0.00 0.00 57 1009.8
20260505050958 40 355 0.9 7.0 0.00 0.00 0.00 58 1009.8
20260505041741 39 69 1.7 3.5 0.00 0.00 0.00 62 1009.5
20260505035651 39 140 0.0 4.3 0.00 0.00 0.00 60 1009.1
20260505033607 39 38 0.9 1.7 0.00 0.00 0.00 59 1009.1
20260505032535 39 64 0.9 5.2 0.00 0.00 0.00 57 1009.1
20260505031509 39 37 0.9 7.0 0.00 0.00 0.00 56 1009.1
20260505030445 39 98 0.9 5.2 0.00 0.00 0.00 55 1009.1
20260505025414 39 159 1.7 4.3 0.00 0.00 0.00 56 1008.8
20260505024413 39 96 2.6 3.5 0.00 0.00 0.00 55 1008.8
20260505023346 39 92 0.9 7.0 0.00 0.00 0.00 54 1008.8
20260505022319 40 84 1.7 4.3 0.00 0.00 0.00 53 1008.8
20260505021309 40 69 3.5 9.6 0.00 0.00 0.00 53 1008.8
20260505020235 40 335 0.0 7.0 0.00 0.00 0.00 52 1008.8
20260505015200 40 27 0.9 9.6 0.00 0.00 0.00 53 1008.8
20260505014131 40 319 3.5 7.8 0.00 0.00 0.00 52 1008.5
20260505013055 40 54 1.7 9.6 0.00 0.00 0.00 51 1008.5
20260505012034 41 96 0.9 7.8 0.00 0.00 0.00 52 1008.5
20260505010010 41 97 1.7 4.3 0.00 0.00 0.00 53 1008.1
20260505005000 41 217 0.9 6.1 0.00 0.00 0.00 54 1008.1
20260505002904 42 82 2.6 14.8 0.00 0.00 0.00 55 1007.8
20260505001900 42 22 2.6 12.2 0.00 0.00 0.00 56 1007.8
20260504235811 42 335 4.3 10.4 0.00 0.00 0.00 57 1007.8
20260504234738 43 295 2.6 13.0 0.00 0.00 0.00 56 1007.8
20260504233707 43 298 7.8 12.2 0.00 0.00 0.00 56 1007.8
20260504232639 43 200 3.5 8.7 0.00 0.00 0.00 55 1007.5
20260504231622 43 61 2.6 7.0 0.00 0.00 0.00 54 1007.5
20260504230556 44 77 1.7 7.0 0.00 0.00 0.00 56 1007.1
20260504225526 44 112 3.5 11.3 0.00 0.00 0.00 54 1006.8
20260504224453 44 119 3.5 13.0 0.00 0.00 0.00 55 1007.1
20260504223426 45 10 6.1 12.2 0.00 0.00 0.00 53 1007.1
20260504222358 45 51 4.3 13.0 0.00 0.00 0.00 54 1006.8
20260504220311 46 342 5.2 11.3 0.00 0.00 0.00 56 1006.4
20260504214237 46 321 7.8 11.3 0.00 0.00 0.00 56 1006.4
20260504213210 47 41 2.6 12.2 0.00 0.00 0.00 55 1006.4
20260504212135 47 326 5.2 13.0 0.00 0.00 0.00 55 1006.4
20260504211105 48 38 3.5 7.0 0.00 0.00 0.00 57 1006.1
20260504210036 48 34 3.5 10.4 0.00 0.00 0.00 56 1006.1